User: anonymous   Login
Location: Vale
(35.4830°N, 81.3830°W)
Time: 11:01:16
(UTC-04:00)
Language:

Oscar 11 - Orbit

View from above orbital plane
View from above orbital plane
View from above satellite
View from above satellite

Ground track
Ground track

The orbit data is extracted from the following two-line orbital elements,

1 14781U 84021B   16180.10116651  .00000083  00000-0  16579-4 0  9996
2 14781  97.7485 231.7710 0007043 281.0738  78.9684 14.82758178737872
Epoch (UTC): 28 June 2016 02:25:40
Eccentricity: 0.0007043
inclination: 97.7485°
perigee height: 616 km
apogee height: 625 km
right ascension of ascending node: 231.7710°
argument of perigee: 281.0738°
revolutions per day: 14.82758178
mean anomaly at epoch: 78.9684°
orbit number at epoch: 73787

The dashed part of the orbit path shows where the satellite is in the earth's shadow,  

DLR